Volver al catálogo

TIANXIANG 1

ActivoComunicacionesVLEO
NORAD 44310·PAYLOAD·🇨🇳 China
Este nombre de satélite aún no ha sido confirmado por fuentes oficiales.

Lanzado Jun 5, 2019 desde Yellow Sea Launch Area

Loading…

Próximos Pases (próximas 24 horas)

TLE

ActualizadoSource: Space-Track

Época: Sep 14, 2026, 12:19 UTC

1 44310U 19032A   26257.51334856  .00007745  00000-0  27195-3 0  9994
2 44310  44.9698 287.7525 0009716  44.1738 315.9920 15.29937111400866

Sigue TIANXIANG 1 en tiempo real con AllMySat

Download on the App Store